Location: Omaha
(41.2590°N, 95.9380°W)
Time: 09:44:13
(UTC-05:00)

Tiangong 2 - Pass Details

Date: 12 October 2017
Orbit: 388 x 392 km, 42.8° (Epoch: 19 October)

Event Time Altitude Azimuth Distance (km) Brightness Sun altitude
Exits shadow 05:48:32 75° 92° (E) 407 1.2 -20.3°
Drops below altitude 10° 05:51:31 10° 77° (ENE) 1,423 5.1 -19.7°
Sets 05:53:36 0° 77° (ENE) 2,280 6.6 -19.3°
